AFR52QU LFBO-LFPG

Flight info

Callsign AFR52QU
Flight time 0h 57m
Altitude 32000
Route FISTO DCT POI/N0394F300 DCT PEPAX UT182 KEPER
Aircraft A320/M-SDE3FGHIRWY/LB1

Departure

Time 2026-05-04 19:22
Airport Toulouse-Blagnac Airport (LFBO)

Arrival

Time 2026-05-04 20:19
Airport Charles de Gaulle International Airport (LFPG)
Time Latitude Longitude Altitude Speed Heading
2026-05-04 18:57 43.63122 1.37050 494 ft 0 kts 20°
2026-05-04 19:10 43.63117 1.37047 478 ft 4 kts 20°
2026-05-04 19:11 43.63092 1.37034 485 ft 4 kts 20°
2026-05-04 19:11 43.63067 1.37021 490 ft 4 kts 31°
2026-05-04 19:11 43.63050 1.36997 485 ft 4 kts 76°
2026-05-04 19:11 43.63050 1.36970 484 ft 1 kts 114°
2026-05-04 19:12 43.63052 1.36965 483 ft 0 kts 114°
2026-05-04 19:14 43.63052 1.36966 483 ft 1 kts 114°
2026-05-04 19:14 43.63044 1.36992 483 ft 3 kts 114°
2026-05-04 19:14 43.63012 1.37026 492 ft 10 kts 172°
2026-05-04 19:14 43.62957 1.36969 490 ft 10 kts 232°
2026-05-04 19:15 43.62903 1.36943 494 ft 8 kts 163°
2026-05-04 19:15 43.62862 1.36983 492 ft 9 kts 142°
2026-05-04 19:15 43.62813 1.37036 488 ft 8 kts 142°
2026-05-04 19:15 43.62774 1.37076 486 ft 6 kts 143°
2026-05-04 19:16 43.62738 1.37113 494 ft 11 kts 144°
2026-05-04 19:16 43.62663 1.37190 494 ft 13 kts 143°
2026-05-04 19:16 43.62594 1.37261 494 ft 11 kts 143°
2026-05-04 19:16 43.62522 1.37336 490 ft 15 kts 142°
2026-05-04 19:17 43.62443 1.37419 486 ft 13 kts 143°
2026-05-04 19:17 43.62374 1.37491 489 ft 13 kts 143°
2026-05-04 19:17 43.62280 1.37588 494 ft 20 kts 143°
2026-05-04 19:17 43.62162 1.37712 491 ft 21 kts 143°
2026-05-04 19:18 43.62051 1.37825 494 ft 19 kts 143°
2026-05-04 19:18 43.61955 1.37925 490 ft 16 kts 143°
2026-05-04 19:18 43.61866 1.38017 489 ft 18 kts 143°
2026-05-04 19:18 43.61762 1.38126 490 ft 18 kts 143°
2026-05-04 19:19 43.61656 1.38160 486 ft 15 kts 210°
2026-05-04 19:19 43.61589 1.38043 491 ft 14 kts 237°
2026-05-04 19:19 43.61604 1.37979 491 ft 0 kts 325°
2026-05-04 19:21 43.61729 1.37851 491 ft 59 kts 322°
2026-05-04 19:21 43.62239 1.37321 494 ft 122 kts 323°
2026-05-04 19:21 43.63054 1.36484 626 ft 160 kts 323°
2026-05-04 19:21 43.63658 1.35872 1057 ft 164 kts 322°
2026-05-04 19:22 43.64553 1.34909 1942 ft 162 kts 318°
2026-05-04 19:22 43.65451 1.33915 2675 ft 175 kts 318°
2026-05-04 19:22 43.66460 1.32784 3167 ft 198 kts 319°
2026-05-04 19:22 43.67603 1.31510 3623 ft 224 kts 320°
2026-05-04 19:23 43.68881 1.30094 4221 ft 245 kts 320°
2026-05-04 19:23 43.70238 1.28603 5056 ft 252 kts 320°
2026-05-04 19:23 43.71656 1.27123 5940 ft 259 kts 328°
2026-05-04 19:23 43.73375 1.26284 6769 ft 268 kts 343°
2026-05-04 19:24 43.75203 1.25677 7654 ft 273 kts 345°
2026-05-04 19:24 43.77086 1.25121 8541 ft 280 kts 349°
2026-05-04 19:24 43.79058 1.25000 9608 ft 288 kts 356°
2026-05-04 19:24 43.81100 1.24941 10373 ft 304 kts 356°
2026-05-04 19:25 43.83296 1.24869 10766 ft 326 kts 356°
2026-05-04 19:25 43.85613 1.24788 11332 ft 338 kts 356°
2026-05-04 19:25 43.87983 1.24704 12046 ft 344 kts 357°
2026-05-04 19:25 43.90396 1.24621 12783 ft 350 kts 357°
2026-05-04 19:26 43.92845 1.24539 13513 ft 355 kts 357°
2026-05-04 19:26 43.95338 1.24457 13860 ft 360 kts 357°
2026-05-04 19:26 43.97851 1.24374 13943 ft 361 kts 357°
2026-05-04 19:26 44.00360 1.24294 13956 ft 361 kts 357°
2026-05-04 19:27 44.02874 1.24212 13960 ft 361 kts 357°
2026-05-04 19:27 44.05402 1.24108 14244 ft 365 kts 354°
2026-05-04 19:27 44.07919 1.23562 14951 ft 368 kts 347°
2026-05-04 19:27 44.10449 1.22909 15612 ft 373 kts 347°
2026-05-04 19:28 44.13019 1.22244 16251 ft 378 kts 347°
2026-05-04 19:28 44.15621 1.21568 16882 ft 383 kts 347°
2026-05-04 19:28 44.18263 1.20878 17503 ft 389 kts 348°
2026-05-04 19:28 44.20939 1.20179 18117 ft 394 kts 348°
2026-05-04 19:29 44.23654 1.19474 18672 ft 399 kts 348°
2026-05-04 19:29 44.26399 1.18775 19232 ft 403 kts 348°
2026-05-04 19:29 44.29174 1.18082 19809 ft 407 kts 348°
2026-05-04 19:29 44.31974 1.17392 20396 ft 411 kts 349°
2026-05-04 19:30 44.34806 1.16693 20966 ft 415 kts 349°
2026-05-04 19:30 44.37661 1.15984 21524 ft 419 kts 349°
2026-05-04 19:30 44.40544 1.15264 22086 ft 423 kts 349°
2026-05-04 19:30 44.43452 1.14536 22681 ft 427 kts 348°
2026-05-04 19:31 44.46394 1.13794 23188 ft 432 kts 348°
2026-05-04 19:31 44.49370 1.13039 23675 ft 437 kts 348°
2026-05-04 19:31 44.52375 1.12279 24118 ft 441 kts 348°
2026-05-04 19:31 44.55407 1.11511 24552 ft 444 kts 348°
2026-05-04 19:32 44.58461 1.10736 24980 ft 448 kts 348°
2026-05-04 19:32 44.61536 1.09955 25398 ft 451 kts 348°
2026-05-04 19:32 44.64632 1.09173 25799 ft 454 kts 348°
2026-05-04 19:32 44.67760 1.08385 26195 ft 458 kts 348°
2026-05-04 19:33 44.70904 1.07591 26589 ft 461 kts 349°
2026-05-04 19:33 44.74068 1.06788 26966 ft 464 kts 348°
2026-05-04 19:33 44.77257 1.05973 27346 ft 467 kts 349°
2026-05-04 19:33 44.80462 1.05153 27719 ft 470 kts 349°
2026-05-04 19:34 44.83695 1.04330 28101 ft 473 kts 349°
2026-05-04 19:34 44.86896 1.03513 28453 ft 476 kts 349°
2026-05-04 19:34 44.90206 1.02662 28821 ft 478 kts 349°
2026-05-04 19:34 44.93443 1.01829 29163 ft 481 kts 348°
2026-05-04 19:35 44.96749 1.00979 29509 ft 484 kts 349°
2026-05-04 19:35 45.00071 1.00127 29852 ft 487 kts 349°
2026-05-04 19:35 45.03415 0.99271 30114 ft 491 kts 349°
2026-05-04 19:35 45.06782 0.98408 30388 ft 493 kts 349°
2026-05-04 19:36 45.10162 0.97538 30671 ft 495 kts 349°
2026-05-04 19:36 45.13554 0.96662 30959 ft 496 kts 348°
2026-05-04 19:36 45.16956 0.95783 31236 ft 498 kts 348°
2026-05-04 19:36 45.20366 0.94906 31575 ft 498 kts 348°
2026-05-04 19:37 45.23770 0.94030 31865 ft 498 kts 348°
2026-05-04 19:37 45.30452 0.92305 31938 ft 475 kts 348°
2026-05-04 19:38 45.36895 0.90631 31938 ft 469 kts 348°
2026-05-04 19:38 45.43310 0.88960 31952 ft 468 kts 348°
2026-05-04 19:39 45.49708 0.87286 31933 ft 468 kts 348°
2026-05-04 19:39 45.56109 0.85610 31929 ft 468 kts 348°
2026-05-04 19:40 45.62513 0.83931 31932 ft 468 kts 348°
2026-05-04 19:40 45.68923 0.82244 31928 ft 468 kts 348°
2026-05-04 19:41 45.75318 0.80558 31931 ft 467 kts 348°
2026-05-04 19:41 45.81715 0.78874 31929 ft 467 kts 348°
2026-05-04 19:42 45.88121 0.77184 31933 ft 468 kts 348°
2026-05-04 19:42 45.94523 0.75480 31934 ft 468 kts 348°
2026-05-04 19:43 46.00934 0.73758 31936 ft 469 kts 348°
2026-05-04 19:43 46.07349 0.72043 31935 ft 469 kts 348°
2026-05-04 19:44 46.13770 0.70347 31939 ft 469 kts 348°
2026-05-04 19:44 46.20183 0.68638 31935 ft 468 kts 348°
2026-05-04 19:45 46.26595 0.66927 31925 ft 468 kts 348°
2026-05-04 19:45 46.33000 0.65204 31921 ft 469 kts 348°
2026-05-04 19:46 46.39416 0.63465 31933 ft 469 kts 347°
2026-05-04 19:46 46.45831 0.61729 31933 ft 469 kts 348°
2026-05-04 19:46 46.49078 0.61202 31929 ft 470 kts
2026-05-04 19:47 46.52306 0.61834 31932 ft 468 kts 17°
2026-05-04 19:47 46.58553 0.64489 31930 ft 468 kts 18°
2026-05-04 19:48 46.64818 0.67047 31933 ft 468 kts 15°
2026-05-04 19:48 46.71172 0.69187 31937 ft 469 kts 13°
2026-05-04 19:49 46.77535 0.71250 31938 ft 468 kts 14°
2026-05-04 19:49 46.83875 0.73399 31941 ft 468 kts 14°
2026-05-04 19:50 46.90216 0.75615 31942 ft 468 kts 15°
2026-05-04 19:50 46.96556 0.77838 31943 ft 468 kts 14°
2026-05-04 19:51 47.02889 0.80060 31954 ft 467 kts 14°
2026-05-04 19:51 47.09210 0.82275 31923 ft 467 kts 14°
2026-05-04 19:52 47.15524 0.84488 31940 ft 466 kts 14°
2026-05-04 19:52 47.21817 0.86702 31952 ft 465 kts 14°
2026-05-04 19:53 47.28111 0.88907 31955 ft 464 kts 14°
2026-05-04 19:53 47.31240 0.90006 31744 ft 458 kts 14°
2026-05-04 19:53 47.34314 0.91094 31488 ft 452 kts 14°
2026-05-04 19:53 47.37354 0.92174 31235 ft 447 kts 14°
2026-05-04 19:54 47.40363 0.93242 30817 ft 443 kts 14°
2026-05-04 19:54 47.43355 0.94303 30350 ft 440 kts 14°
2026-05-04 19:54 47.46322 0.95355 29864 ft 438 kts 14°
2026-05-04 19:54 47.49272 0.96402 29397 ft 433 kts 14°
2026-05-04 19:55 47.52188 0.97443 28954 ft 429 kts 14°
2026-05-04 19:55 47.55072 0.98473 28516 ft 424 kts 14°
2026-05-04 19:55 47.57922 0.99490 28095 ft 420 kts 14°
2026-05-04 19:55 47.60747 1.00495 27668 ft 416 kts 14°
2026-05-04 19:56 47.63553 1.01494 27239 ft 412 kts 14°
2026-05-04 19:56 47.66320 1.02486 26817 ft 408 kts 14°
2026-05-04 19:56 47.69035 1.03461 26386 ft 405 kts 14°
2026-05-04 19:56 47.71766 1.04435 25943 ft 402 kts 14°
2026-05-04 19:57 47.74506 1.05416 25490 ft 399 kts 14°
2026-05-04 19:57 47.77200 1.06384 25043 ft 397 kts 14°
2026-05-04 19:57 47.79840 1.07336 24568 ft 395 kts 14°
2026-05-04 19:57 47.82501 1.08300 24102 ft 393 kts 13°
2026-05-04 19:58 47.85149 1.09258 23629 ft 391 kts 13°
2026-05-04 19:58 47.87789 1.10212 23103 ft 389 kts 13°
2026-05-04 19:58 47.90407 1.11160 22640 ft 385 kts 13°
2026-05-04 19:58 47.92997 1.12098 22179 ft 382 kts 13°
2026-05-04 19:59 47.95571 1.13028 21727 ft 378 kts 13°
2026-05-04 19:59 47.98115 1.13949 21286 ft 375 kts 13°
2026-05-04 19:59 48.00598 1.15020 21022 ft 366 kts 22°
2026-05-04 19:59 48.02902 1.16469 20940 ft 353 kts 23°
2026-05-04 20:00 48.05134 1.17863 20823 ft 342 kts 23°
2026-05-04 20:00 48.07313 1.19219 20465 ft 339 kts 23°
2026-05-04 20:00 48.09489 1.20571 20054 ft 338 kts 23°
2026-05-04 20:00 48.11661 1.21928 19623 ft 338 kts 23°
2026-05-04 20:01 48.13834 1.23293 19200 ft 338 kts 23°
2026-05-04 20:01 48.16001 1.24662 18783 ft 338 kts 23°
2026-05-04 20:01 48.18169 1.26032 18360 ft 338 kts 23°
2026-05-04 20:01 48.20342 1.27403 17903 ft 340 kts 23°
2026-05-04 20:02 48.22518 1.28782 17464 ft 339 kts 23°
2026-05-04 20:02 48.24688 1.30156 17064 ft 338 kts 23°
2026-05-04 20:02 48.26847 1.31519 16664 ft 336 kts 22°
2026-05-04 20:02 48.28992 1.32865 16276 ft 334 kts 22°
2026-05-04 20:03 48.31132 1.34199 15897 ft 332 kts 22°
2026-05-04 20:03 48.33256 1.35520 15514 ft 330 kts 22°
2026-05-04 20:03 48.35375 1.36842 15136 ft 329 kts 22°
2026-05-04 20:03 48.37485 1.38161 14750 ft 328 kts 22°
2026-05-04 20:04 48.39593 1.39481 14367 ft 327 kts 23°
2026-05-04 20:04 48.41689 1.40800 13977 ft 326 kts 23°
2026-05-04 20:04 48.43781 1.42118 13578 ft 325 kts 23°
2026-05-04 20:04 48.45863 1.43423 13177 ft 323 kts 23°
2026-05-04 20:05 48.47926 1.44715 12793 ft 320 kts 23°
2026-05-04 20:05 48.49980 1.45991 12401 ft 318 kts 23°
2026-05-04 20:05 48.51364 1.46842 12135 ft 317 kts 22°
2026-05-04 20:05 48.53394 1.48081 11747 ft 314 kts 22°
2026-05-04 20:06 48.55420 1.49319 11345 ft 313 kts 22°
2026-05-04 20:06 48.57427 1.50552 11007 ft 309 kts 24°
2026-05-04 20:06 48.59350 1.51843 10950 ft 297 kts 26°
2026-05-04 20:06 48.61211 1.53200 10962 ft 297 kts 27°
2026-05-04 20:07 48.63066 1.54567 10954 ft 297 kts 26°
2026-05-04 20:07 48.64918 1.55936 10960 ft 296 kts 27°
2026-05-04 20:07 48.66772 1.57303 10955 ft 296 kts 27°
2026-05-04 20:07 48.68623 1.58667 10958 ft 296 kts 27°
2026-05-04 20:08 48.70473 1.60031 10962 ft 296 kts 27°
2026-05-04 20:08 48.72314 1.61431 10922 ft 296 kts 32°
2026-05-04 20:08 48.73831 1.63461 10669 ft 290 kts 53°
2026-05-04 20:08 48.75000 1.65945 10429 ft 289 kts 56°
2026-05-04 20:09 48.76150 1.68438 10191 ft 288 kts 56°
2026-05-04 20:09 48.77288 1.70921 9955 ft 286 kts 56°
2026-05-04 20:09 48.78422 1.73398 9833 ft 286 kts 56°
2026-05-04 20:09 48.79555 1.75869 9706 ft 285 kts 56°
2026-05-04 20:10 48.80683 1.78331 9576 ft 284 kts 56°
2026-05-04 20:10 48.81793 1.80756 9395 ft 281 kts 56°
2026-05-04 20:10 48.82917 1.83209 9030 ft 278 kts 56°
2026-05-04 20:10 48.84000 1.85572 8635 ft 275 kts 56°
2026-05-04 20:11 48.85087 1.87945 8263 ft 273 kts 56°
2026-05-04 20:11 48.86169 1.90313 7873 ft 272 kts 56°
2026-05-04 20:11 48.87242 1.92660 7474 ft 270 kts 56°
2026-05-04 20:11 48.88309 1.94997 7065 ft 269 kts 56°
2026-05-04 20:12 48.89372 1.97332 6664 ft 269 kts 56°
2026-05-04 20:12 48.90420 1.99635 6471 ft 258 kts 56°
2026-05-04 20:12 48.91413 2.01812 6396 ft 244 kts 56°
2026-05-04 20:12 48.92357 2.03881 6297 ft 235 kts 56°
2026-05-04 20:13 48.93298 2.05954 6191 ft 240 kts 56°
2026-05-04 20:13 48.94247 2.08045 6089 ft 240 kts 56°
2026-05-04 20:13 48.95194 2.10133 5989 ft 240 kts 56°
2026-05-04 20:13 48.96142 2.12226 5875 ft 240 kts 56°
2026-05-04 20:14 48.96898 2.14452 5726 ft 236 kts 76°
2026-05-04 20:14 48.97098 2.16908 5463 ft 233 kts 85°
2026-05-04 20:14 48.97230 2.19381 5165 ft 237 kts 84°
2026-05-04 20:14 48.97371 2.21928 4854 ft 247 kts 84°
2026-05-04 20:15 48.97524 2.24604 4476 ft 260 kts 85°
2026-05-04 20:15 48.97678 2.27326 4130 ft 255 kts 85°
2026-05-04 20:15 48.97829 2.29997 3800 ft 250 kts 85°
2026-05-04 20:15 48.97972 2.32575 3475 ft 239 kts 84°
2026-05-04 20:16 48.98111 2.35062 3164 ft 233 kts 85°
2026-05-04 20:16 48.98252 2.37482 2839 ft 226 kts 84°
2026-05-04 20:16 48.98381 2.39819 2558 ft 217 kts 85°
2026-05-04 20:16 48.98500 2.42062 2268 ft 208 kts 84°
2026-05-04 20:17 48.98616 2.44194 2031 ft 196 kts 84°
2026-05-04 20:17 48.98727 2.46206 1757 ft 185 kts 84°
2026-05-04 20:17 48.98830 2.48084 1501 ft 172 kts 84°
2026-05-04 20:17 48.98924 2.49817 1287 ft 154 kts 84°
2026-05-04 20:18 48.99009 2.51366 1064 ft 142 kts 84°
2026-05-04 20:18 48.99089 2.52835 864 ft 137 kts 84°
2026-05-04 20:18 48.99167 2.54275 691 ft 136 kts 85°
2026-05-04 20:18 48.99242 2.55705 534 ft 135 kts 84°
2026-05-04 20:19 48.99322 2.57127 373 ft 134 kts 83°
2026-05-04 20:19 48.99392 2.58419 353 ft 101 kts 85°
2026-05-04 20:19 48.99434 2.59223 352 ft 51 kts 85°
2026-05-04 20:19 48.99455 2.59625 356 ft 31 kts 85°
2026-05-04 20:20 48.99492 2.59863 357 ft 22 kts 65°
2026-05-04 20:20 48.99574 2.59975 360 ft 7 kts 18°
2026-05-04 20:20 48.99618 2.59980 357 ft 8 kts 354°
2026-05-04 20:20 48.99669 2.59973 358 ft 6 kts 355°
2026-05-04 20:21 48.99704 2.59969 354 ft 4 kts 355°
2026-05-04 20:21 48.99754 2.59963 354 ft 12 kts 356°
2026-05-04 20:21 48.99904 2.60009 362 ft 11 kts 51°
2026-05-04 20:22 48.99965 2.60074 354 ft 10 kts
2026-05-04 20:22 49.00019 2.60029 357 ft 8 kts 319°
2026-05-04 20:22 49.00070 2.59988 358 ft 10 kts 334°
2026-05-04 20:22 49.00094 2.59881 354 ft 13 kts 262°
2026-05-04 20:23 49.00087 2.59746 361 ft 13 kts 265°
2026-05-04 20:23 49.00079 2.59608 354 ft 14 kts 265°
2026-05-04 20:23 49.00069 2.59400 354 ft 24 kts 265°
2026-05-04 20:23 49.00056 2.59145 356 ft 25 kts 265°
2026-05-04 20:24 49.00042 2.58885 354 ft 24 kts 265°
2026-05-04 20:24 49.00031 2.58688 358 ft 12 kts 265°
2026-05-04 20:24 49.00026 2.58606 354 ft 6 kts 265°
2026-05-04 20:24 49.00023 2.58545 354 ft 5 kts 265°
2026-05-04 20:25 49.00020 2.58486 354 ft 8 kts 266°
2026-05-04 20:25 49.00018 2.58432 354 ft 0 kts 266°
2026-05-04 20:25 49.00018 2.58430 354 ft 1 kts 266°
2026-05-04 20:26 49.00020 2.58369 354 ft 6 kts 285°
2026-05-04 20:26 49.00069 2.58321 354 ft 10 kts 354°
2026-05-04 20:26 49.00144 2.58311 357 ft 13 kts 355°
2026-05-04 20:26 49.00225 2.58301 354 ft 7 kts 357°
2026-05-04 20:27 49.00250 2.58345 354 ft 6 kts 77°
2026-05-04 20:27 49.00252 2.58407 354 ft 2 kts 85°